Theta_e
319 322 325 326 326 327 328 329 329 330 330 329 328 327 326 326 325 327 325 324 325 324 324 324 324 322 323 324 321 319 314 315 306 305 296 294 294 294 294 292 291 291 291
319 321 322 324 325 326 326 326 325 328 327 326 326 325 325 325 325 326 326 324 325 325 326 325 324 323 323 320 320 312 315 306 304 296 294 293 293 294 293 292 291 291 291
311 312 313 315 317 318 320 322 325 326 325 324 324 324 323 324 325 326 326 326 326 326 325 324 324 322 320 319 320 315 309 307 298 294 293 295 293 293 293 292 291 291 293
310 310 309 309 309 310 313 316 319 322 324 325 327 325 324 322 323 324 324 325 324 321 319 320 319 320 319 319 318 310 307 305 293 293 299 291 292 292 293 292 291 292 293
311 311 310 309 309 309 309 309 309 310 311 314 319 320 321 320 318 318 319 318 317 318 318 319 317 316 314 312 310 307 304 296 293 297 292 292 292 291 292 292 291 293 293
310 309 309 308 308 308 308 308 308 309 309 311 310 316 317 316 313 313 315 315 316 316 315 314 314 313 313 311 310 307 304 299 293 294 295 299 292 291 291 291 291 293 291
309 309 309 308 308 308 308 308 309 309 310 310 310 310 309 309 309 309 312 313 313 312 310 310 311 311 310 307 304 301 299 297 300 299 299 292 290 290 290 291 293 294 291
308 308 308 308 308 308 308 308 308 309 309 309 309 308 308 309 309 309 308 308 308 308 308 309 310 310 308 306 303 301 300 300 300 297 292 291 290 290 290 290 293 293 291
308 307 307 307 307 308 308 308 308 308 308 308 308 308 307 307 309 309 310 310 310 310 310 310 308 307 305 302 300 299 299 299 298 293 290 289 289 290 290 291 295 292 293
307 307 307 307 307 307 307 307 307 307 307 308 308 307 307 307 307 308 309 309 310 310 309 306 304 304 303 301 300 298 299 297 291 290 289 289 289 289 289 291 294 294 292
307 307 307 307 307 307 307 307 307 307 307 307 307 306 306 305 307 308 308 307 307 307 306 305 303 301 299 299 297 296 294 294 290 289 288 289 289 289 289 290 294 294 293
307 307 307 306 306 306 306 306 306 306 306 305 305 305 304 305 305 306 307 307 306 306 305 301 297 294 294 294 294 294 290 289 289 289 288 288 289 289 289 289 291 294 293
305 305 305 305 305 305 305 305 305 305 304 303 303 302 302 302 303 304 304 303 301 300 299 298 297 295 294 293 291 289 288 290 289 288 288 288 288 288 288 288 288 290 291
304 304 305 304 304 304 304 304 304 304 304 303 302 301 300 299 299 299 299 300 299 297 296 295 293 292 291 290 290 290 289 288 288 288 288 288 288 288 288 288 288 288 291
304 304 304 303 303 302 301 301 300 300 300 300 301 301 300 300 299 299 299 297 295 294 293 292 292 292 292 290 290 292 292 291 290 289 288 287 287 287 287 288 288 287 288
302 302 300 299 297 296 296 296 295 294 294 294 294 294 294 294 295 295 296 296 296 295 293 292 291 289 289 288 288 288 288 288 287 287 286 287 287 286 286 287 287 288 287
298 297 296 295 294 293 292 291 291 290 290 289 289 289 289 288 288 288 289 289 291 292 292 291 290 288 287 286 286 286 287 288 287 287 286 286 286 286 286 287 287 286 286
295 294 293 292 291 290 290 289 288 288 287 287 287 287 287 286 286 286 286 286 286 286 286 286 286 286 286 285 285 286 286 286 286 286 285 286 286 286 285 285 285 285 285
292 291 290 289 289 288 287 287 287 287 287 286 286 286 286 286 285 285 285 285 285 285 285 285 284 284 286 285 284 284 284 284 285 285 284 284 284 284 284 284 284 284 283
289 288 288 287 287 287 287 286 286 286 286 285 285 285 285 285 285 285 284 284 284 284 284 283 283 283 284 284 284 283 283 283 283 283 284 284 284 283 283 282 282 282 282
287 287 286 286 286 286 286 285 285 285 285 285 285 285 284 284 284 284 284 284 284 283 283 283 282 282 281 281 281 282 282 282 282 282 282 282 282 282 281 280 280 280 280
286 286 286 286 285 285 285 285 285 285 285 285 284 284 284 283 283 283 283 283 283 283 283 283 282 282 281 281 280 280 280 280 280 280 280 280 280 280 279 279 279 279 278
285 285 285 285 285 285 285 285 284 284 284 284 284 284 283 283 283 282 282 282 282 282 281 281 281 281 280 280 279 279 279 279 278 278 278 278 278 278 277 277 277 277 277
285 285 285 284 284 284 284 284 284 284 284 284 284 283 283 282 282 282 281 281 281 280 280 280 280 280 280 279 278 278 278 277 277 276 276 276 276 276 276 275 275 275 275
285 285 284 284 284 284 284 284 284 284 283 283 283 282 282 281 281 280 280 280 280 279 279 279 279 278 278 277 277 276 276 276 275 275 275 275 275 274 274 274 274 274 274
284 284 283 283 283 283 283 283 283 283 282 282 281 281 281 280 280 279 279 278 278 278 277 277 277 277 276 276 276 275 275 275 274 274 274 274 273 273 273 273 272 272 272
Wind_Speed
29 31 33 35 35 35 36 36 38 38 38 38 37 35 34 33 32 34 35 38 39 39 42 42 44 48 43 51 54 45 37 33 33 28 28 25 23 22 24 22 21 20 18
25 27 29 29 31 33 35 35 34 35 36 35 34 33 32 31 31 34 35 35 39 40 39 40 42 42 39 48 49 37 35 31 24 24 31 23 22 25 23 24 23 22 18
18 21 24 27 29 30 31 31 32 32 33 32 32 31 31 31 30 31 30 34 37 35 34 36 39 39 33 37 45 37 33 26 20 25 21 27 27 27 27 26 25 20 21
12 14 16 19 22 24 26 28 29 30 31 31 29 29 29 31 28 30 29 29 28 31 35 35 35 35 36 36 37 33 27 22 19 22 21 25 27 28 28 27 24 21 24
15 16 17 18 19 21 22 24 25 26 26 25 24 24 26 27 29 29 32 33 33 33 32 31 29 29 28 30 29 27 24 18 22 22 19 25 29 31 31 27 25 24 25
17 17 16 16 16 16 16 16 17 18 19 20 21 22 25 28 27 28 29 28 28 26 25 26 26 27 27 26 28 28 24 25 22 23 24 30 30 31 28 26 24 25 22
18 18 18 17 15 15 14 14 14 14 15 16 17 19 21 22 22 23 26 27 29 30 31 30 26 26 24 22 21 18 21 24 24 23 28 28 26 27 26 27 26 25 22
18 19 18 16 15 13 13 13 12 12 13 14 16 18 18 18 17 15 15 16 18 19 19 19 20 21 21 21 21 21 21 21 21 22 27 25 26 26 26 26 25 24 25
18 16 14 13 11 11 11 11 12 13 14 14 15 15 15 15 13 13 14 15 17 17 18 17 18 19 18 18 19 21 20 20 21 23 24 25 26 28 29 27 23 25 26
14 12 10 8 8 8 8 8 8 10 10 11 12 12 12 12 13 13 14 16 16 17 16 15 13 14 16 18 19 18 20 19 22 23 25 25 27 28 29 28 26 27 30
12 10 8 6 5 4 4 3 3 5 5 7 9 11 11 11 11 12 12 13 14 14 12 11 12 13 13 13 15 20 19 20 21 22 24 26 27 28 30 32 30 27 31
15 14 11 8 5 4 2 2 4 5 5 7 9 11 11 12 12 13 13 13 12 12 10 10 10 11 12 13 19 20 19 20 21 24 27 28 30 31 32 34 34 31 33
14 10 8 6 4 3 1 2 2 3 4 5 7 8 10 10 11 12 12 12 9 8 8 9 11 13 16 17 19 20 23 24 24 28 30 31 31 31 33 34 37 35 36
14 12 8 5 3 1 1 0 0 1 2 3 5 7 8 9 10 10 11 12 12 9 9 10 13 15 16 18 18 18 22 24 26 29 31 33 34 34 34 34 37 37 39
13 10 9 7 6 6 5 4 3 4 4 5 6 8 8 10 12 12 12 12 13 13 14 15 16 17 18 20 20 20 22 24 28 31 33 34 35 36 36 35 37 37 40
13 12 12 11 11 10 8 6 6 5 5 5 6 7 8 9 11 13 14 15 15 16 17 18 17 18 19 20 20 21 21 23 25 27 28 29 32 34 36 38 35 37 38
15 16 15 13 12 9 8 6 6 6 6 5 6 7 8 10 12 13 14 15 16 16 15 17 18 18 19 21 22 23 24 22 21 23 26 28 30 30 33 35 36 36 37
19 16 13 12 10 8 7 6 5 5 5 4 4 6 8 10 12 14 14 16 16 17 15 14 15 16 17 18 21 23 23 23 23 24 25 25 25 26 28 31 32 33 33
17 16 15 13 11 9 7 5 4 3 3 4 7 9 10 12 14 15 16 16 17 19 20 20 19 20 20 20 21 22 24 26 26 25 26 25 25 25 28 29 29 29 28
18 16 15 12 10 7 4 2 2 4 7 9 11 12 12 12 12 14 16 17 18 19 20 21 22 23 24 24 25 24 25 25 24 24 26 28 26 25 26 26 26 27 26
17 15 12 9 7 5 2 1 4 6 8 10 11 13 15 15 16 16 18 19 19 20 21 22 23 24 26 28 29 30 31 31 28 26 23 23 27 29 27 25 24 25 27
15 12 9 7 5 3 3 4 6 8 10 12 14 16 17 17 18 18 19 20 21 22 23 24 24 26 27 28 29 30 30 30 30 32 34 35 35 33 31 31 31 30 28
12 10 8 7 6 5 6 7 9 11 13 15 17 18 19 20 21 21 22 23 23 23 24 25 25 25 25 26 27 29 30 29 27 28 30 30 30 30 29 28 28 27 26
10 9 9 9 9 10 11 12 13 15 17 19 20 21 22 22 23 23 24 24 24 25 25 25 25 26 25 25 25 25 26 27 27 26 25 26 26 26 26 26 25 25 24
12 13 13 14 14 14 15 16 17 19 20 22 23 24 25 25 25 26 26 27 27 26 25 25 25 25 24 24 23 23 23 23 23 23 23 23 23 22 23 23 23 23 23
15 16 16 17 18 18 19 20 21 22 24 25 26 27 28 28 28 28 28 28 27 26 26 26 25 25 25 24 23 23 22 21 21 22 21 21 20 20 21 20 20 20 19
Wind_Direction
250 251 254 256 259 262 263 265 267 271 272 273 274 275 276 275 274 273 269 272 273 273 271 277 277 285 278 273 273 258 261 266 260 262 263 268 256 248 241 241 241 243 254
249 252 254 257 259 261 263 265 267 268 271 272 274 275 277 277 278 279 274 275 271 271 275 278 283 285 282 289 286 269 261 258 262 256 266 256 264 249 240 237 240 244 258
238 244 249 252 254 257 261 264 265 266 267 270 271 272 273 274 276 275 278 280 273 276 279 283 283 290 280 284 275 270 265 264 249 250 253 278 256 244 242 240 240 246 258
229 234 239 243 247 250 253 256 259 259 260 263 266 266 267 268 270 274 277 271 279 283 283 278 283 284 280 277 273 269 262 252 237 245 260 258 260 252 245 242 242 250 264
237 241 244 246 247 250 252 254 256 256 257 259 259 258 260 267 268 272 270 282 282 283 283 284 286 287 290 288 279 270 259 246 243 251 248 258 263 255 246 244 240 255 264
245 249 253 255 257 259 260 261 264 266 266 264 265 262 267 269 268 264 268 271 274 280 285 289 293 292 297 289 281 270 260 243 227 237 249 251 261 254 253 244 244 259 254
245 250 253 256 258 257 255 254 255 257 260 264 269 272 274 275 277 273 269 266 270 274 278 278 282 283 278 283 275 264 242 240 254 247 245 251 256 258 255 243 249 259 254
243 246 248 250 251 253 252 252 255 261 268 274 276 277 276 276 278 280 283 286 286 288 285 281 281 278 276 272 267 260 259 259 239 245 255 260 254 247 243 240 256 261 258
239 243 247 248 252 256 261 261 263 266 272 278 282 285 292 290 293 291 288 289 288 282 280 277 274 277 279 272 262 259 259 249 248 261 261 256 254 251 243 237 255 261 269
233 234 234 238 240 244 254 266 277 282 288 291 295 295 284 286 290 288 286 283 287 278 270 280 285 283 275 266 261 261 251 258 271 270 267 265 259 253 247 244 248 257 268
201 200 194 179 184 189 216 245 266 279 284 281 277 278 282 281 279 280 283 287 294 300 297 291 285 279 269 259 255 255 264 273 271 264 264 263 258 255 249 246 253 260 269
168 175 173 176 180 193 221 265 281 303 316 309 298 293 290 282 286 288 288 283 281 279 286 281 272 263 255 258 262 269 272 270 270 273 265 262 263 262 261 255 256 263 277
168 166 166 175 187 194 211 279 320 327 318 310 300 293 293 291 286 281 283 288 290 285 282 274 263 255 253 256 266 272 271 270 276 276 277 276 272 269 265 262 261 267 275
170 175 177 176 161 140 115 161 292 348 360 343 330 330 326 313 306 303 301 296 291 276 267 261 264 267 269 274 274 277 279 282 285 285 282 282 281 281 279 275 271 269 279
173 172 173 175 168 156 153 124 76 52 36 22 8 359 354 349 340 334 323 306 296 289 274 269 268 268 270 271 274 284 289 291 288 287 285 285 286 286 285 282 279 277 280
176 173 175 168 158 153 146 130 108 86 72 49 29 13 2 357 353 346 340 331 321 308 297 293 292 295 295 295 296 298 300 299 297 297 293 286 285 286 288 291 292 291 289
179 171 165 158 153 147 134 126 119 107 84 56 28 11 2 356 351 346 340 336 330 321 310 304 302 302 305 306 306 304 301 301 299 299 299 296 293 293 292 289 289 289 288
172 166 158 154 146 140 135 131 114 94 80 57 24 359 347 343 338 335 335 337 335 333 329 324 318 312 304 301 303 303 302 302 301 299 300 300 299 300 295 291 290 288 288
167 160 156 154 151 148 144 132 114 78 30 1 351 337 330 326 325 327 328 328 330 327 325 322 317 310 306 302 303 302 302 301 301 301 300 298 300 301 298 296 294 292 290
164 162 161 160 157 151 146 129 2 355 346 340 333 328 330 327 324 322 323 323 321 317 314 312 309 303 300 298 295 294 293 292 293 297 297 298 298 294 292 293 295 294 292
167 164 159 162 163 161 165 311 330 335 335 333 328 324 324 322 323 323 321 320 318 316 314 311 307 304 301 299 297 294 290 288 285 281 279 278 281 287 287 284 283 285 288
167 170 175 185 199 221 266 304 319 323 322 320 320 320 319 317 318 318 317 317 316 315 313 314 312 310 309 307 305 303 302 300 296 289 285 284 284 284 283 282 282 283 284
180 192 209 221 241 267 286 300 307 312 313 312 310 310 311 311 311 309 309 309 310 309 309 309 307 307 307 307 306 305 304 304 302 300 298 294 292 289 287 286 285 283 280
204 220 239 252 261 273 283 291 297 301 302 303 303 302 302 302 302 302 303 304 305 305 305 305 305 307 307 307 307 306 305 304 303 300 295 293 293 292 290 287 285 283 280
247 247 253 262 271 277 282 287 291 294 296 297 298 299 298 298 299 300 300 300 299 298 299 300 301 301 302 305 306 306 306 305 303 299 298 296 295 294 292 290 289 284 280
247 254 261 266 269 274 280 285 291 294 296 297 296 295 294 294 295 294 294 294 295 296 296 297 297 298 299 301 303 305 306 306 302 299 298 297 296 294 292 293 289 284 281